TELSTAR 18V (APSTAR 5C) (43611 NORAD) Tracking and Keplerian Element Data

This shows tracking and keplerian element data for the satellite.

Feedback or suggestion? Click here.




ElementValue
Catalog43611
NameTELSTAR 18V (APSTAR 5C)
Epoch Orbit273
Epoch Day143.99866413
Epoch Year2019
RAAN2.6451
Inclination0.0147
Eccentricity0.0002502
Argument of Perigee22.014
Mean Anonmoly354.1656
Mean Motion1.00272519
Decay Rate-3E-06
L11 43611U 18069A 19143.99866413 -.00000300 00000-0 00000+0 0 9996
L22 43611 0.0147 2.6451 0002502 22.0140 354.1656 1.00272519 2734

Live tracking and technical data element details for TELSTAR 18V (APSTAR 5C) (NORAD 43611). TELSTAR 18V (APSTAR 5C) can be tracked NOW for your location showing map with azimuth and elevation plus other details from your city location.

Track the satellite on the map from your city or location and see movement details for azimuth, elevation, latitude, longitude, range, height, and movement on the map or in text.







IsCatalogInMostPopularTable: catalog: 43611, numindb: 205
Update: records affected: 1



GetName: 43611 TELSTAR 18V (APSTAR 5C)

Hit Count: updated at: Fri, 24 May 2019 21:52:52 GMT